AAL808 KCLT-KMEM

Flight info

Callsign AAL808
Flight time 1h 32m
Altitude 32000
Route BOBZY5 BNA SPKER BLUZZ4
Aircraft B738/M-VGDW/C

Departure

Time 2026-05-06 13:34
Airport Charlotte Douglas International Airport (KCLT)

Arrival

Time 2026-05-06 15:06
Airport Memphis International Airport (KMEM)
Time Latitude Longitude Altitude Speed Heading
2026-05-06 13:20 35.21980 -80.94695 726 ft 0 kts 26°
2026-05-06 13:22 35.21978 -80.94698 726 ft 2 kts 24°
2026-05-06 13:22 35.21963 -80.94703 726 ft 2 kts 22°
2026-05-06 13:23 35.21950 -80.94710 726 ft 1 kts 24°
2026-05-06 13:23 35.21941 -80.94715 726 ft 2 kts
2026-05-06 13:23 35.21927 -80.94710 725 ft 2 kts 318°
2026-05-06 13:23 35.21919 -80.94694 725 ft 2 kts 277°
2026-05-06 13:24 35.21919 -80.94681 725 ft 0 kts 248°
2026-05-06 13:24 35.21923 -80.94673 725 ft 1 kts 244°
2026-05-06 13:24 35.21923 -80.94672 725 ft 0 kts 244°
2026-05-06 13:31 35.21921 -80.94678 725 ft 4 kts 247°
2026-05-06 13:31 35.21898 -80.94784 725 ft 21 kts 253°
2026-05-06 13:32 35.21880 -80.95002 724 ft 29 kts 295°
2026-05-06 13:32 35.22084 -80.95060 728 ft 35 kts 357°
2026-05-06 13:32 35.22366 -80.95080 735 ft 41 kts 357°
2026-05-06 13:32 35.22580 -80.95099 738 ft 19 kts 355°
2026-05-06 13:33 35.22722 -80.95140 740 ft 23 kts 302°
2026-05-06 13:33 35.22673 -80.95304 740 ft 27 kts 186°
2026-05-06 13:33 35.22250 -80.95274 734 ft 98 kts 176°
2026-05-06 13:33 35.21346 -80.95197 715 ft 160 kts 176°
2026-05-06 13:34 35.20128 -80.95062 1103 ft 180 kts 174°
2026-05-06 13:34 35.18865 -80.94789 1765 ft 193 kts 173°
2026-05-06 13:34 35.17488 -80.94501 2381 ft 212 kts 176°
2026-05-06 13:34 35.15958 -80.94260 2836 ft 228 kts 187°
2026-05-06 13:35 35.14476 -80.94847 3344 ft 233 kts 221°
2026-05-06 13:35 35.13599 -80.96481 4099 ft 236 kts 255°
2026-05-06 13:35 35.13581 -80.98463 4877 ft 244 kts 280°
2026-05-06 13:35 35.14145 -81.00427 5669 ft 248 kts 287°
2026-05-06 13:36 35.14673 -81.02409 6409 ft 249 kts 281°
2026-05-06 13:36 35.15032 -81.04451 7225 ft 248 kts 277°
2026-05-06 13:36 35.15328 -81.06503 8077 ft 246 kts 277°
2026-05-06 13:36 35.15637 -81.08579 8665 ft 253 kts 278°
2026-05-06 13:37 35.15973 -81.10671 9452 ft 252 kts 279°
2026-05-06 13:37 35.16321 -81.12762 10168 ft 254 kts 279°
2026-05-06 13:37 35.16666 -81.14908 10552 ft 267 kts 279°
2026-05-06 13:37 35.17024 -81.17225 10802 ft 285 kts 278°
2026-05-06 13:38 35.17384 -81.19644 11035 ft 301 kts 278°
2026-05-06 13:38 35.17769 -81.22250 11185 ft 319 kts 278°
2026-05-06 13:38 35.18190 -81.24971 11391 ft 334 kts 279°
2026-05-06 13:38 35.18653 -81.27812 11796 ft 342 kts 279°
2026-05-06 13:39 35.19123 -81.30656 12481 ft 341 kts 279°
2026-05-06 13:39 35.19519 -81.33501 12998 ft 343 kts 274°
2026-05-06 13:39 35.19566 -81.36392 13709 ft 339 kts 267°
2026-05-06 13:39 35.19417 -81.39265 14217 ft 342 kts 265°
2026-05-06 13:40 35.19190 -81.43147 14876 ft 345 kts 266°
2026-05-06 13:40 35.19101 -81.45083 15211 ft 347 kts 268°
2026-05-06 13:40 35.18992 -81.48032 15686 ft 349 kts 268°
2026-05-06 13:40 35.18888 -81.51031 16082 ft 353 kts 268°
2026-05-06 13:41 35.18789 -81.54008 16504 ft 356 kts 269°
2026-05-06 13:41 35.18690 -81.57020 17083 ft 354 kts 268°
2026-05-06 13:41 35.18583 -81.60022 17602 ft 354 kts 269°
2026-05-06 13:41 35.18472 -81.63009 18012 ft 357 kts 268°
2026-05-06 13:42 35.18376 -81.66097 18258 ft 364 kts 269°
2026-05-06 13:42 35.18312 -81.69218 18502 ft 370 kts 269°
2026-05-06 13:42 35.18252 -81.72361 18969 ft 370 kts 269°
2026-05-06 13:42 35.18190 -81.75481 19375 ft 372 kts 270°
2026-05-06 13:43 35.18125 -81.78656 19639 ft 377 kts 269°
2026-05-06 13:43 35.18057 -81.81863 20014 ft 379 kts 269°
2026-05-06 13:43 35.17979 -81.85113 20425 ft 380 kts 269°
2026-05-06 13:43 35.17890 -81.88341 20801 ft 382 kts 269°
2026-05-06 13:44 35.17808 -81.91576 21131 ft 385 kts 270°
2026-05-06 13:44 35.17738 -81.94862 21309 ft 391 kts 269°
2026-05-06 13:44 35.17671 -81.98201 21670 ft 392 kts 269°
2026-05-06 13:44 35.17596 -82.01517 22007 ft 394 kts 269°
2026-05-06 13:45 35.17513 -82.04887 22259 ft 397 kts 269°
2026-05-06 13:45 35.17363 -82.11607 23005 ft 398 kts 269°
2026-05-06 13:45 35.17285 -82.15023 23347 ft 399 kts 269°
2026-05-06 13:46 35.17272 -82.18379 23698 ft 399 kts 273°
2026-05-06 13:46 35.17572 -82.21735 24041 ft 399 kts 279°
2026-05-06 13:46 35.18168 -82.25030 24274 ft 402 kts 284°
2026-05-06 13:46 35.18948 -82.28338 24531 ft 404 kts 286°
2026-05-06 13:47 35.19791 -82.31625 24793 ft 406 kts 287°
2026-05-06 13:47 35.20631 -82.34865 25208 ft 404 kts 287°
2026-05-06 13:47 35.21498 -82.38109 25543 ft 404 kts 287°
2026-05-06 13:47 35.22340 -82.41392 25817 ft 405 kts 286°
2026-05-06 13:48 35.23165 -82.44706 26041 ft 407 kts 286°
2026-05-06 13:48 35.23959 -82.48017 26407 ft 405 kts 285°
2026-05-06 13:48 35.24735 -82.51314 26712 ft 405 kts 284°
2026-05-06 13:48 35.25482 -82.54604 26883 ft 408 kts 285°
2026-05-06 13:49 35.26230 -82.57992 27105 ft 410 kts 284°
2026-05-06 13:49 35.26979 -82.61340 27326 ft 411 kts 285°
2026-05-06 13:49 35.27783 -82.64681 27707 ft 409 kts 286°
2026-05-06 13:49 35.28580 -82.67967 28154 ft 405 kts 285°
2026-05-06 13:50 35.29390 -82.71276 28587 ft 402 kts 284°
2026-05-06 13:50 35.30156 -82.74541 28927 ft 400 kts 284°
2026-05-06 13:50 35.30918 -82.77857 29167 ft 402 kts 283°
2026-05-06 13:50 35.31653 -82.81142 29306 ft 405 kts 284°
2026-05-06 13:51 35.32388 -82.84502 29494 ft 408 kts 283°
2026-05-06 13:51 35.33128 -82.87833 29785 ft 408 kts 283°
2026-05-06 13:51 35.33881 -82.91157 30170 ft 405 kts 284°
2026-05-06 13:51 35.34646 -82.94468 30642 ft 400 kts 284°
2026-05-06 13:52 35.35398 -82.97687 31106 ft 395 kts 284°
2026-05-06 13:52 35.36150 -83.00932 31500 ft 392 kts 284°
2026-05-06 13:52 35.36885 -83.04165 31799 ft 391 kts 283°
2026-05-06 13:52 35.37611 -83.07357 31992 ft 392 kts 284°
2026-05-06 13:53 35.39105 -83.13849 32040 ft 400 kts 285°
2026-05-06 13:53 35.40621 -83.20448 32038 ft 404 kts 284°
2026-05-06 13:54 35.42125 -83.27062 32028 ft 403 kts 283°
2026-05-06 13:54 35.43584 -83.33657 32023 ft 402 kts 284°
2026-05-06 13:55 35.45053 -83.40243 32026 ft 402 kts 284°
2026-05-06 13:55 35.46563 -83.46815 32021 ft 399 kts 284°
2026-05-06 13:56 35.48024 -83.53350 32013 ft 399 kts 284°
2026-05-06 13:56 35.49493 -83.59919 32015 ft 401 kts 284°
2026-05-06 13:57 35.50934 -83.66464 32002 ft 398 kts 283°
2026-05-06 13:57 35.52389 -83.72971 32001 ft 395 kts 283°
2026-05-06 13:58 35.53844 -83.79487 31994 ft 398 kts 284°
2026-05-06 13:58 35.55315 -83.86040 31977 ft 395 kts 283°
2026-05-06 13:59 35.56720 -83.92534 31978 ft 394 kts 282°
2026-05-06 13:59 35.58134 -83.99009 31975 ft 395 kts 283°
2026-05-06 14:00 35.59558 -84.05511 31974 ft 395 kts 283°
2026-05-06 14:00 35.60976 -84.12006 31972 ft 395 kts 283°
2026-05-06 14:01 35.62452 -84.18500 31969 ft 393 kts 283°
2026-05-06 14:01 35.63844 -84.24926 31963 ft 391 kts 282°
2026-05-06 14:02 35.65241 -84.31373 31968 ft 391 kts 283°
2026-05-06 14:02 35.66547 -84.37852 31968 ft 390 kts 280°
2026-05-06 14:03 35.67656 -84.44360 31965 ft 392 kts 282°
2026-05-06 14:03 35.69012 -84.50861 31962 ft 391 kts 281°
2026-05-06 14:04 35.70515 -84.57196 31954 ft 387 kts 284°
2026-05-06 14:04 35.72041 -84.63574 31956 ft 391 kts 284°
2026-05-06 14:05 35.73474 -84.70017 31952 ft 388 kts 282°
2026-05-06 14:05 35.74923 -84.76369 31953 ft 388 kts 283°
2026-05-06 14:06 35.76325 -84.82800 31957 ft 390 kts 281°
2026-05-06 14:06 35.77613 -84.89263 31959 ft 387 kts 282°
2026-05-06 14:07 35.78935 -84.95634 31958 ft 383 kts 282°
2026-05-06 14:07 35.80284 -85.01984 31968 ft 387 kts 281°
2026-05-06 14:08 35.81602 -85.08363 31965 ft 385 kts 281°
2026-05-06 14:08 35.82926 -85.14761 31967 ft 384 kts 281°
2026-05-06 14:09 35.84250 -85.21118 31960 ft 384 kts 282°
2026-05-06 14:09 35.85590 -85.27478 31957 ft 385 kts 281°
2026-05-06 14:10 35.86881 -85.33823 31954 ft 382 kts 281°
2026-05-06 14:10 35.88190 -85.40177 31951 ft 382 kts 282°
2026-05-06 14:11 35.89531 -85.46478 31949 ft 383 kts 282°
2026-05-06 14:11 35.90832 -85.52836 31945 ft 381 kts 281°
2026-05-06 14:12 35.92126 -85.59157 31944 ft 382 kts 281°
2026-05-06 14:12 35.93396 -85.65529 31939 ft 381 kts 280°
2026-05-06 14:13 35.94678 -85.71842 31936 ft 379 kts 281°
2026-05-06 14:13 35.95945 -85.78078 31935 ft 378 kts 281°
2026-05-06 14:14 35.97234 -85.84364 31932 ft 380 kts 280°
2026-05-06 14:14 35.98516 -85.90664 31932 ft 378 kts 280°
2026-05-06 14:15 35.99780 -85.96953 31942 ft 379 kts 280°
2026-05-06 14:15 36.00991 -86.03247 31947 ft 376 kts 279°
2026-05-06 14:16 36.02237 -86.09502 31954 ft 376 kts 281°
2026-05-06 14:16 36.03492 -86.15762 31953 ft 378 kts 279°
2026-05-06 14:17 36.04758 -86.22076 31956 ft 377 kts 281°
2026-05-06 14:17 36.05981 -86.28333 31959 ft 376 kts 280°
2026-05-06 14:18 36.07225 -86.34600 31964 ft 376 kts 280°
2026-05-06 14:18 36.08478 -86.40824 31961 ft 376 kts 280°
2026-05-06 14:19 36.09723 -86.47076 31958 ft 376 kts 280°
2026-05-06 14:19 36.10969 -86.53346 31962 ft 374 kts 280°
2026-05-06 14:20 36.12183 -86.59587 31960 ft 374 kts 279°
2026-05-06 14:20 36.13295 -86.65850 31956 ft 374 kts 274°
2026-05-06 14:21 36.13156 -86.72210 31954 ft 371 kts 262°
2026-05-06 14:21 36.12082 -86.78387 31949 ft 370 kts 259°
2026-05-06 14:22 36.10980 -86.84641 31953 ft 371 kts 259°
2026-05-06 14:22 36.09931 -86.90878 31946 ft 371 kts 260°
2026-05-06 14:23 36.08933 -86.97078 31947 ft 370 kts 259°
2026-05-06 14:23 36.07934 -87.03328 31949 ft 371 kts 260°
2026-05-06 14:24 36.06914 -87.09573 31948 ft 370 kts 260°
2026-05-06 14:24 36.05866 -87.15765 31947 ft 371 kts 260°
2026-05-06 14:25 36.04883 -87.21970 31954 ft 370 kts 260°
2026-05-06 14:25 36.03850 -87.28189 31949 ft 368 kts 260°
2026-05-06 14:26 36.02823 -87.34334 31956 ft 368 kts 260°
2026-05-06 14:26 36.01767 -87.40523 31957 ft 369 kts 260°
2026-05-06 14:27 36.00717 -87.46699 31951 ft 369 kts 260°
2026-05-06 14:27 35.99720 -87.52889 31953 ft 368 kts 261°
2026-05-06 14:28 35.98681 -87.59081 31954 ft 368 kts 260°
2026-05-06 14:28 35.97625 -87.65247 31958 ft 368 kts 260°
2026-05-06 14:29 35.96592 -87.71409 31963 ft 368 kts 259°
2026-05-06 14:29 35.95566 -87.77563 31969 ft 368 kts 259°
2026-05-06 14:30 35.94503 -87.83740 31970 ft 367 kts 259°
2026-05-06 14:30 35.93449 -87.89848 31977 ft 366 kts 259°
2026-05-06 14:31 35.92409 -87.96007 31975 ft 367 kts 259°
2026-05-06 14:31 35.91398 -88.02187 31982 ft 367 kts 259°
2026-05-06 14:32 35.90381 -88.08359 31794 ft 369 kts 259°
2026-05-06 14:32 35.89835 -88.11431 31484 ft 364 kts 258°
2026-05-06 14:32 35.89284 -88.14432 31171 ft 354 kts 258°
2026-05-06 14:33 35.88749 -88.17351 30912 ft 347 kts 259°
2026-05-06 14:33 35.88235 -88.20269 30672 ft 349 kts 259°
2026-05-06 14:33 35.87727 -88.23180 30435 ft 356 kts 259°
2026-05-06 14:33 35.87201 -88.26180 30201 ft 361 kts 259°
2026-05-06 14:34 35.86676 -88.29216 29959 ft 363 kts 258°
2026-05-06 14:34 35.86145 -88.32279 29710 ft 364 kts 259°
2026-05-06 14:34 35.85619 -88.35305 29463 ft 364 kts 259°
2026-05-06 14:34 35.85103 -88.38338 29219 ft 364 kts 259°
2026-05-06 14:35 35.84598 -88.41385 28970 ft 363 kts 259°
2026-05-06 14:35 35.84085 -88.44441 28712 ft 360 kts 259°
2026-05-06 14:35 35.83564 -88.47405 28463 ft 359 kts 258°
2026-05-06 14:35 35.83040 -88.50403 28222 ft 357 kts 258°
2026-05-06 14:36 35.82518 -88.53383 27919 ft 358 kts 259°
2026-05-06 14:36 35.81995 -88.56363 27450 ft 355 kts 259°
2026-05-06 14:36 35.81467 -88.59326 26914 ft 350 kts 258°
2026-05-06 14:36 35.80956 -88.62205 26386 ft 344 kts 259°
2026-05-06 14:37 35.80461 -88.65023 25876 ft 339 kts 259°
2026-05-06 14:37 35.79970 -88.67837 25351 ft 334 kts 259°
2026-05-06 14:37 35.79480 -88.70638 24821 ft 330 kts 258°
2026-05-06 14:37 35.78998 -88.73343 24319 ft 326 kts 258°
2026-05-06 14:38 35.78507 -88.76029 23829 ft 321 kts 257°
2026-05-06 14:38 35.78009 -88.78687 23330 ft 318 kts 258°
2026-05-06 14:38 35.77528 -88.81310 22836 ft 314 kts 258°
2026-05-06 14:38 35.77067 -88.83916 22354 ft 311 kts 258°
2026-05-06 14:39 35.76606 -88.86526 21857 ft 317 kts 258°
2026-05-06 14:39 35.76150 -88.89223 21359 ft 332 kts 258°
2026-05-06 14:39 35.75689 -88.92022 20800 ft 334 kts 259°
2026-05-06 14:39 35.75251 -88.94776 20254 ft 330 kts 259°
2026-05-06 14:40 35.74801 -88.97511 19716 ft 326 kts 258°
2026-05-06 14:40 35.74336 -89.00227 19185 ft 322 kts 258°
2026-05-06 14:40 35.73864 -89.02884 18666 ft 317 kts 258°
2026-05-06 14:40 35.73253 -89.05476 18141 ft 314 kts 250°
2026-05-06 14:41 35.72226 -89.07814 17769 ft 310 kts 239°
2026-05-06 14:41 35.70870 -89.09835 17433 ft 306 kts 233°
2026-05-06 14:41 35.69388 -89.11731 16884 ft 305 kts 231°
2026-05-06 14:41 35.67928 -89.13573 16394 ft 302 kts 232°
2026-05-06 14:42 35.66479 -89.15440 15891 ft 300 kts 232°
2026-05-06 14:42 35.65059 -89.17289 15395 ft 297 kts 232°
2026-05-06 14:42 35.63625 -89.19105 14899 ft 294 kts 231°
2026-05-06 14:42 35.62211 -89.20859 14412 ft 292 kts 230°
2026-05-06 14:43 35.60796 -89.22639 14019 ft 290 kts 231°
2026-05-06 14:43 35.59378 -89.24455 13987 ft 295 kts 232°
2026-05-06 14:43 35.57976 -89.26271 13982 ft 295 kts 232°
2026-05-06 14:43 35.56589 -89.28112 13986 ft 292 kts 232°
2026-05-06 14:44 35.55233 -89.29984 13983 ft 293 kts 234°
2026-05-06 14:44 35.53879 -89.31843 13987 ft 291 kts 233°
2026-05-06 14:44 35.52507 -89.33648 13985 ft 293 kts 232°
2026-05-06 14:45 35.49621 -89.37254 13984 ft 295 kts 231°
2026-05-06 14:45 35.48191 -89.39024 13976 ft 293 kts 231°
2026-05-06 14:45 35.46750 -89.40830 13980 ft 295 kts 231°
2026-05-06 14:45 35.45323 -89.42643 13979 ft 295 kts 232°
2026-05-06 14:46 35.43917 -89.44454 13979 ft 293 kts 232°
2026-05-06 14:46 35.42516 -89.46281 13975 ft 293 kts 232°
2026-05-06 14:46 35.41114 -89.48106 13980 ft 295 kts 232°
2026-05-06 14:46 35.39708 -89.49925 13981 ft 294 kts 231°
2026-05-06 14:47 35.38299 -89.51749 13981 ft 294 kts 232°
2026-05-06 14:47 35.36882 -89.53558 13975 ft 296 kts 231°
2026-05-06 14:47 35.35442 -89.55370 13898 ft 298 kts 231°
2026-05-06 14:47 35.33987 -89.57178 13579 ft 295 kts 231°
2026-05-06 14:48 35.32560 -89.58953 13153 ft 290 kts 231°
2026-05-06 14:48 35.31165 -89.60708 12708 ft 287 kts 230°
2026-05-06 14:48 35.29802 -89.62443 12372 ft 280 kts 231°
2026-05-06 14:48 35.28492 -89.64135 12190 ft 269 kts 232°
2026-05-06 14:49 35.27231 -89.65778 12029 ft 258 kts 231°
2026-05-06 14:49 35.26013 -89.67348 11859 ft 253 kts 230°
2026-05-06 14:49 35.24797 -89.68896 11486 ft 252 kts 231°
2026-05-06 14:49 35.23599 -89.70412 11162 ft 249 kts 230°
2026-05-06 14:50 35.22391 -89.71942 10828 ft 246 kts 230°
2026-05-06 14:50 35.21222 -89.73429 10510 ft 243 kts 230°
2026-05-06 14:50 35.20065 -89.74905 10184 ft 240 kts 230°
2026-05-06 14:50 35.18924 -89.76368 9950 ft 233 kts 230°
2026-05-06 14:51 35.17827 -89.77782 9846 ft 223 kts 231°
2026-05-06 14:51 35.16742 -89.79202 9532 ft 237 kts 231°
2026-05-06 14:51 35.15616 -89.80707 9200 ft 244 kts 230°
2026-05-06 14:51 35.14446 -89.82190 8935 ft 237 kts 229°
2026-05-06 14:52 35.13311 -89.83582 8830 ft 224 kts 228°
2026-05-06 14:52 35.12240 -89.84879 8753 ft 212 kts 229°
2026-05-06 14:52 35.11202 -89.86080 8683 ft 202 kts 221°
2026-05-06 14:52 35.09902 -89.86771 8542 ft 219 kts 196°
2026-05-06 14:53 35.08291 -89.86796 8297 ft 241 kts 182°
2026-05-06 14:53 35.06608 -89.86575 7983 ft 241 kts 182°
2026-05-06 14:53 35.04935 -89.86444 7707 ft 235 kts 187°
2026-05-06 14:53 35.03335 -89.86464 7454 ft 229 kts 189°
2026-05-06 14:54 35.01750 -89.86543 7150 ft 227 kts 189°
2026-05-06 14:54 35.00191 -89.86594 6923 ft 222 kts 190°
2026-05-06 14:54 34.98659 -89.86607 6694 ft 218 kts 187°
2026-05-06 14:54 34.97139 -89.86581 6450 ft 215 kts 187°
2026-05-06 14:55 34.95662 -89.86536 6202 ft 211 kts 185°
2026-05-06 14:55 34.94161 -89.86494 5992 ft 224 kts 186°
2026-05-06 14:55 34.92575 -89.86488 5696 ft 229 kts 187°
2026-05-06 14:55 34.90988 -89.86474 5424 ft 225 kts 186°
2026-05-06 14:56 34.89415 -89.86454 5170 ft 222 kts 184°
2026-05-06 14:56 34.87893 -89.86407 4927 ft 219 kts 183°
2026-05-06 14:56 34.86372 -89.86319 4682 ft 216 kts 182°
2026-05-06 14:56 34.84876 -89.86256 4435 ft 213 kts 183°
2026-05-06 14:57 34.83351 -89.86226 4216 ft 226 kts 184°
2026-05-06 14:57 34.81767 -89.86220 3926 ft 228 kts 183°
2026-05-06 14:57 34.80190 -89.86208 3663 ft 226 kts 182°
2026-05-06 14:57 34.78625 -89.86176 3400 ft 224 kts 181°
2026-05-06 14:58 34.77063 -89.86137 3037 ft 227 kts 182°
2026-05-06 14:58 34.75486 -89.86114 2992 ft 229 kts 181°
2026-05-06 14:58 34.73868 -89.86073 2990 ft 230 kts 181°
2026-05-06 14:58 34.72287 -89.86218 2974 ft 227 kts 202°
2026-05-06 14:59 34.71037 -89.87322 2987 ft 222 kts 240°
2026-05-06 14:59 34.70688 -89.89082 2986 ft 221 kts 280°
2026-05-06 14:59 34.71299 -89.90801 2989 ft 221 kts 304°
2026-05-06 14:59 34.72236 -89.92288 3004 ft 225 kts 307°
2026-05-06 15:00 34.73192 -89.93770 2998 ft 222 kts 307°
2026-05-06 15:00 34.74124 -89.95285 2995 ft 220 kts 307°
2026-05-06 15:00 34.75263 -89.96526 2979 ft 224 kts 335°
2026-05-06 15:00 34.76798 -89.96888 2994 ft 227 kts 356°
2026-05-06 15:01 34.78359 -89.96995 2988 ft 222 kts 353°
2026-05-06 15:01 34.79861 -89.97076 2987 ft 207 kts 357°
2026-05-06 15:01 34.81271 -89.97092 2996 ft 195 kts 357°
2026-05-06 15:01 34.82634 -89.97137 2990 ft 197 kts 357°
2026-05-06 15:02 34.84005 -89.97167 2986 ft 198 kts 357°
2026-05-06 15:02 34.85396 -89.97186 3000 ft 197 kts 358°
2026-05-06 15:02 34.86747 -89.97212 2998 ft 196 kts 356°
2026-05-06 15:02 34.88128 -89.97253 2980 ft 199 kts 357°
2026-05-06 15:03 34.89505 -89.97272 2940 ft 199 kts 357°
2026-05-06 15:03 34.90903 -89.97298 2652 ft 200 kts 357°
2026-05-06 15:03 34.92283 -89.97347 2392 ft 195 kts 358°
2026-05-06 15:03 34.93641 -89.97376 2098 ft 191 kts 358°
2026-05-06 15:04 34.94956 -89.97392 1835 ft 187 kts 360°
2026-05-06 15:04 34.96245 -89.97423 1581 ft 184 kts 359°
2026-05-06 15:04 34.97511 -89.97447 1334 ft 181 kts 359°
2026-05-06 15:04 34.98760 -89.97475 1089 ft 177 kts 359°
2026-05-06 15:05 34.99945 -89.97501 874 ft 160 kts 359°
2026-05-06 15:05 35.00998 -89.97522 672 ft 141 kts 359°
2026-05-06 15:05 35.01957 -89.97514 500 ft 138 kts 356°
2026-05-06 15:05 35.02922 -89.97561 326 ft 129 kts 360°
2026-05-06 15:06 35.03619 -89.97574 315 ft 70 kts
2026-05-06 15:06 35.03805 -89.97636 311 ft 10 kts 260°
2026-05-06 15:06 35.03799 -89.97684 311 ft 0 kts 266°
2026-05-06 15:07 35.03799 -89.97688 311 ft 4 kts 266°
2026-05-06 15:07 35.03800 -89.97874 307 ft 33 kts 273°
2026-05-06 15:08 35.03809 -89.97993 305 ft 0 kts 287°
2026-05-06 15:08 35.03809 -89.97994 305 ft 0 kts 287°
2026-05-06 15:08 35.03850 -89.98026 304 ft 10 kts
2026-05-06 15:08 35.03886 -89.97970 305 ft 7 kts 81°
2026-05-06 15:09 35.03889 -89.97922 306 ft 4 kts 85°
2026-05-06 15:09 35.03897 -89.97878 306 ft 10 kts 57°
2026-05-06 15:09 35.04034 -89.97836 304 ft 32 kts
2026-05-06 15:09 35.04207 -89.97835 300 ft 12 kts 359°
2026-05-06 15:10 35.04280 -89.97847 299 ft 5 kts 300°
2026-05-06 15:10 35.04295 -89.97886 298 ft 4 kts 295°
2026-05-06 15:10 35.04304 -89.97907 298 ft 0 kts 299°